Location: Bothwell
(42.3833°S, 147.0000°E)
Time: 20:58:00
(UTC+11:00)

BEESAT - Pass Details

Date: 04 October 2022
Orbit: 699 x 706 km, 98.5° (Epoch: 25 November)

Event Time Altitude Azimuth Distance (km) Brightness Sun altitude
Exits shadow 19:42:43 - 61° (ENE) 2,706 ? -4.7°
Reaches altitude 10° 19:44:22 10° 73° (ENE) 2,191 ? -5.0°
Maximum altitude 19:47:44 19° 117° (ESE) 1,657 ? -5.6°
Drops below altitude 10° 19:51:07 10° 162° (SSE) 2,213 ? -6.2°
Sets 19:53:57 0° 178° (S) 3,141 ? -6.8°
